Location: Cahas Mountain Overlook
(37.0833°N, 80.1000°W)
Time: 19:09:08
(UTC-04:00)

SR - Pass Details

Date: 14 February 2026
Orbit: 572 x 849 km, 66.7° (Epoch: 12 March)

Event Time Altitude Azimuth Distance (km) Brightness Sun altitude
Rises 04:42:04 0° 182° (S) 2,761 - -30.1°
Reaches altitude 10° 04:44:27 10° 172° (S) 1,865 - -29.6°
Exits shadow 04:47:21 28° 130° (SE) 1,087 ? -29.1°
Maximum altitude 04:48:05 30° 110° (ESE) 1,043 ? -28.9°
Drops below altitude 10° 04:51:49 10° 49° (NE) 1,914 ? -28.2°
Sets 04:54:17 0° 39° (NE) 2,847 ? -27.7°
